Flag for United Kingdom Weather past 2 weeks in Londonderry, Northern Ireland, United Kingdom

Now
41 °F

Sprinkles. Broken clouds.


Feels Like: 35 °F
Forecast: 38 / 48 °F
Wind: 9 mph from West

Location: Eglinton / Londonderry

Current Time: Apr 1, 2015 at 9:56:20 AM

Latest Report: Apr 1, 2015 at 9:20 AM


Visibility: N/A

Pressure: 30.12 "Hg

Humidity: 93%

Dew point: 39 °F

Location of LondonderryLocation

Historic Weather in Londonderry — Graph

°F

Londonderry temperature yesterday

Maximum temperature yesterday: 45 °F (at 8:50 AM)
Minimum temperature yesterday: 39 °F (at 3:20 PM)
Average temperature yesterday: 42 °F

Past Weeks' High & Low Weather Summary

 TemperatureHumidityPressure
High55 °F (Mar 19, 12:50 PM)100% (Mar 17, 7:20 AM)30.57 "Hg (Mar 17, 7:20 AM)
Low28 °F (Mar 18, 6:20 AM)50% (Mar 29, 3:50 PM)29.24 "Hg (Mar 29, 9:50 AM)
Average47 °F76%29.97 "Hg
* Reported Mar 17 7:20 AM — Apr 1 8:20 AM, Londonderry, Weather by CustomWeather, © 2015

Note: Actual official high and low records may vary slightly from our data, if they occured in-between our weather recording intervals... More about our weather records

Advertising

Londonderry weather history for previous 24 hours

 ConditionsComfort  
Time TempWeatherWind HumidityBarometerVisibility
8:20 AM
Wed, Apr 1
41 °FSprinkles. Scattered clouds.17 mph87%30.12 "HgN/A
7:50 AM41 °FPassing clouds.13 mph87%30.12 "HgN/A
7:20 AM41 °FSprinkles. Passing clouds.13 mph87%30.09 "HgN/A
6:50 AM41 °FSprinkles. Passing clouds.17 mph81%30.09 "HgN/A
6:20 AM41 °FPassing clouds.13 mph87%30.09 "HgN/A
4:20 PM
Tue, Mar 31
41 °FScattered clouds.32 mph76%29.83 "HgN/A
3:50 PM43 °FScattered clouds.29 mph81%29.80 "HgN/A
3:20 PM39 °FLots of rain. Partly sunny.38 mph81%29.80 "Hg4 mi
2:50 PM41 °FRain showers. Scattered clouds.41 mph81%29.80 "HgN/A
2:20 PM43 °FScattered clouds.29 mph76%29.77 "HgN/A
1:50 PM43 °FPartly sunny.31 mph76%29.77 "HgN/A
1:20 PM43 °FRain showers. Broken clouds.37 mph66%29.74 "HgN/A
12:50 PM41 °FScattered showers. Scattered clouds.35 mph87%29.74 "HgN/A
12:20 PM43 °FSprinkles. Partly sunny.38 mph71%29.71 "HgN/A
11:50 AM45 °FScattered showers. Partly sunny.28 mph76%29.68 "HgN/A
11:20 AM41 °FScattered showers. Passing clouds.32 mph81%29.68 "HgN/A
10:50 AM41 °FScattered showers. Passing clouds.29 mph81%29.68 "HgN/A
10:20 AM41 °FScattered showers. Partly sunny.33 mph81%29.65 "Hg6 mi
9:50 AM41 °FSprinkles. Scattered clouds.30 mph81%29.65 "Hg6 mi
9:20 AM43 °FRain showers. Broken clouds.31 mph71%29.62 "Hg4 mi
Weather by CustomWeather, © 2015

See weather overviewHow to use our weather pages